Yunhai 1-04

operational
NORAD ID: 58073 Int'l Des: 2023-159 Owner: SAST Country: CN
LEOCIRCULARRETROGRADESSO

About Yunhai 1-04

Description loading...

Live Position

Loading 3D Globe...

Upcoming Passes

Altitude History

Altitude vs Time

uPlot chart will show altitude changes over time

Two-Line Element Set

1 58073U 23159A 26062.20671082 .00000346 00000-0 14333-3 0 9995
2 58073 98.5102 89.9259 0002009 121.7408 238.3972 14.32655223124628
Epoch: Mar 3, 2026 • Age: 17 hours

Current Status

Altitude 787.8 km
Velocity 7.46 km/s
Sub-Earth Point 42.76°N, 143.11°W
Launch Date Oct 15, 2023
Age 2.3 years
Type other

Technical Details

Classification Payload
Mass 800.00 kg
Dry Mass 800.00 kg
Total Mass 800.00 kg
Length 2.00 m
Diameter 1.50 m
Span 4.00 m
Shape Box + 2 Pan
Manufacturer SAST
Bus Type Yunhai-1
Phase Status In Orbit
Owner/State SAST/CN

Large Constellations

Loading constellations...